Location: Shenandoah County Park
(38.9356°N, 78.4524°W)
Time: 00:51:54
(UTC-05:00)

A-11 Canister half - Pass Details

Date: 04 December 2023
Orbit: 1526 x 1682 km, 47.3° (Epoch: 01 March)

Event Time Altitude Azimuth Distance (km) Brightness Sun altitude
Rises 17:14:32 0° 197° (SSW) 4,891 12.3 -4.8°
Reaches altitude 10° 17:18:07 10° 187° (S) 3,919 11.6 -5.5°
Maximum altitude 17:26:36 32° 129° (SE) 2,598 10.0 -7.0°
Drops below altitude 10° 17:35:05 10° 72° (ENE) 3,935 10.4 -8.5°
Enters shadow 17:35:15 10° 71° (ENE) 3,978 10.5 -8.5°
